Location: Grantsboro
(35.1404°N, 76.8424°W)
Time: 18:50:24
(UTC+00:00)

Cosmos 1470 - Pass Details

Date: 18 January 2020
Orbit: 520 x 544 km, 82.5° (Epoch: 24 February)

Event Time Altitude Azimuth Distance (km) Brightness Sun altitude
Rises 10:35:57 0° 199° (SSW) 2,677 6.3 -19.9°
Reaches altitude 10° 10:38:09 10° 206° (SSW) 1,794 5.3 -19.5°
Enters shadow 10:39:46 23° 217° (SW) 1,192 4.3 -19.2°
Exits shadow 10:44:31 19° 345° (NNW) 1,342 4.5 -18.2°
Drops below altitude 10° 10:45:46 10° 353° (N) 1,814 5.3 -18.0°
Sets 10:48:01 0° 360° (N) 2,711 6.2 -17.5°
